This demonstration page uses our WeatherBlox Daily Observations layout. Learn more.

Left ArrowRight Arrow

Hourly Observations for October 13, 2021

Temp ( °F °C ) Dew Point ( °F °C ) Humidity (%) Winds ( mph kmh ) Pressure ( in mb ) Visibility ( mi km ) Precip ( " mm )
12:15 am 00:15 Cloudy with Thunderstorms 56 13.1 55 12.6 97 97 SE 12 19 29.59 1002 5 8 0.06 1.52
12:35 am 00:35 Cloudy with Thunderstorms 56 13.2 55 12.7 97 97 E 20 31 29.53 1000 5 8 0.16 4.06
12:55 am 00:55 Cloudy with Thunderstorms 56 13.5 55 13 97 97 ESE 14 22 29.52 1000 10 16 0.20 5.08
1:15 am 01:15 Cloudy with Light Rain 56 13.5 56 13.1 97 97 SE 14 22 29.54 1000 10 16 0.01 0.25
1:35 am 01:35 Cloudy 56 13.6 56 13.1 97 97 S 10 17 29.57 1001 10 16 0.01 0.25
1:55 am 01:55 Cloudy with Rain 57 13.7 56 13.2 97 97 S 10 17 29.55 1001 4 6 0.03 0.76
2:15 am 02:15 Cloudy 57 13.7 56 13.3 97 97 SSE 9 15 29.51 999 10 16 0.00 0.00
2:35 am 02:35 Cloudy 56 13.5 56 13.1 97 97 SE 12 19 29.48 998 10 16 0.00 0.00
2:55 am 02:55 Cloudy 56 13.5 55 13 97 97 ESE 12 19 29.47 998 10 16 0.00 0.00
3:15 am 03:15 Cloudy 56 13.2 55 12.8 97 97 SE 13 20 29.47 998 10 16 0.00 0.00
3:35 am 03:35 Cloudy 56 13.3 55 13 98 98 SE 16 26 29.43 997 10 16 0.00 0.00
3:55 am 03:55 Cloudy 56 13.5 55 13 97 97 SE 20 31 29.41 996 10 16 0.00 0.00
4:15 am 04:15 Cloudy 56 13.6 56 13.2 97 97 SSE 14 22 29.42 996 10 16 0.00 0.00
4:35 am 04:35 Cloudy 57 13.7 56 13.4 98 98 S 17 28 29.43 997 10 16 0.00 0.00
4:55 am 04:55 Cloudy with Mist and Fog 57 14 56 13.6 97 97 SSW 20 31 29.46 998 2 2 0.00 0.00
5:15 am 05:15 Cloudy with Rain 57 13.7 56 13.4 98 98 SW 23 37 29.47 998 4 6 0.01 0.25
5:35 am 05:35 Cloudy with Light Rain 56 13.4 55 12.8 96 96 SW 17 28 29.48 998 10 16 0.01 0.25
5:55 am 05:55 Mostly Cloudy 54 12.4 50 9.8 84 84 WSW 15 24 29.49 999 10 16 0.01 0.25
6:15 am 06:15 Partly Cloudy 49 9.7 45 7.3 85 85 WSW 13 20 29.53 1000 10 16 0.00 0.00
6:35 am 06:35 Partly Cloudy 48 8.9 44 6.5 85 85 W 18 30 29.54 1000 10 16 0.00 0.00
6:55 am 06:55 Clear 47 8.2 43 6.2 87 87 W 18 30 29.56 1001 10 16 0.00 0.00
7:15 am 07:15 Clear 45 7.4 42 5.4 87 87 WSW 21 33 29.58 1002 10 16 0.00 0.00
7:35 am 07:35 Clear 44 6.7 39 4 83 83 W 20 31 29.58 1002 10 16 0.00 0.00
7:55 am 07:55 Sunny 43 6.2 38 3.2 81 81 W 15 24 29.61 1003 10 16 0.00 0.00
8:15 am 08:15 Sunny 43 6.3 37 2.9 79 79 W 17 28 29.63 1003 10 16 0.00 0.00
8:35 am 08:35 Sunny 44 6.5 37 2.5 76 76 W 15 24 29.64 1004 10 16 0.00 0.00
8:55 am 08:55 Sunny 44 6.6 37 2.5 75 75 W 16 26 29.64 1004 10 16 0.00 0.00
9:15 am 09:15 Sunny 45 7.2 37 2.6 73 73 W 20 31 29.64 1004 10 16 0.00 0.00
9:35 am 09:35 Sunny 46 7.6 37 2.7 71 71 WSW 13 20 29.65 1004 10 16 0.00 0.00
9:55 am 09:55 Sunny 47 8.2 36 2.4 67 67 W 23 37 29.65 1004 10 16 0.00 0.00
10:15 am 10:15 Sunny 48 8.9 35 1.9 62 62 W 20 31 29.64 1004 10 16 0.00 0.00
10:35 am 10:35 Sunny 49 9.5 35 1.8 59 59 W 28 44 29.64 1004 10 16 0.00 0.00
10:55 am 10:55 Sunny 50 10.1 35 1.7 56 56 W 30 48 29.63 1003 10 16 0.00 0.00
11:15 am 11:15 Sunny 51 10.5 35 1.4 54 54 W 30 48 29.62 1003 10 16 0.00 0.00
11:35 am 11:35 Sunny 52 11.3 35 1.4 51 51 W 30 48 29.62 1003 10 16 0.00 0.00
11:55 am 11:55 Sunny 53 11.6 34 1.1 49 49 W 37 59 29.63 1003 10 16 0.00 0.00
12:15 pm 12:15 Sunny 54 12 34 1.3 48 48 W 31 50 29.63 1003 10 16 0.00 0.00
12:35 pm 12:35 Sunny 55 12.9 34 0.9 44 44 W 26 43 29.63 1003 10 16 0.00 0.00
12:55 pm 12:55 Sunny 56 13.4 33 0.4 41 41 WSW 30 48 29.63 1003 10 16 0.00 0.00
1:15 pm 13:15 Sunny 57 13.8 32 0 39 39 W 31 50 29.63 1003 10 16 0.00 0.00
1:35 pm 13:35 Sunny 58 14.3 32 0.1 38 38 W 29 46 29.63 1003 10 16 0.00 0.00
1:55 pm 13:55 Sunny 58 14.5 32 0.1 38 38 W 30 48 29.63 1004 10 16 0.00 0.00
2:15 pm 14:15 Sunny 59 15 32 0 36 36 W 26 43 29.63 1003 10 16 0.00 0.00
2:35 pm 14:35 Sunny 60 15.3 32 0 35 35 W 28 44 29.64 1004 10 16 0.00 0.00
2:55 pm 14:55 Sunny 60 15.5 31 -0.3 34 34 W 29 46 29.64 1004 10 16 0.00 0.00
3:15 pm 15:15 Sunny 60 15.5 32 -0.1 35 35 W 26 43 29.64 1004 10 16 0.00 0.00
3:35 pm 15:35 Sunny 60 15.8 32 -0.1 34 34 W 23 37 29.65 1004 10 16 0.00 0.00
3:55 pm 15:55 Sunny 60 15.6 32 -0.1 34 34 W 20 31 29.65 1004 10 16 0.00 0.00
4:15 pm 16:15 Sunny 61 16 32 0.1 34 34 W 23 37 29.66 1004 10 16 0.00 0.00
4:35 pm 16:35 Sunny 60 15.7 32 -0.1 34 34 WNW 22 35 29.65 1004 10 16 0.00 0.00
4:55 pm 16:55 Sunny 60 15.6 32 -0.2 34 34 WNW 22 35 29.67 1005 10 16 0.00 0.00
5:15 pm 17:15 Sunny 60 15.6 32 -0.1 34 34 W 15 24 29.68 1005 10 16 0.00 0.00
5:35 pm 17:35 Sunny 60 15.5 32 0 35 35 WNW 14 22 29.69 1005 10 16 0.00 0.00
5:55 pm 17:55 Sunny 59 15.2 31 -0.7 34 34 WNW 15 24 29.70 1006 10 16 0.00 0.00
6:15 pm 18:15 Sunny 58 14.6 31 -0.7 35 35 W 24 39 29.72 1007 10 16 0.00 0.00
6:35 pm 18:35 Sunny 56 13.6 30 -1.3 36 36 W 15 24 29.74 1007 10 16 0.00 0.00
6:55 pm 18:55 Sunny 55 12.9 31 -0.8 39 39 W 12 19 29.75 1007 10 16 0.00 0.00
7:15 pm 19:15 Clear 54 12 32 -0.1 44 44 W 9 15 29.77 1008 10 16 0.00 0.00
7:35 pm 19:35 Clear 51 10.8 32 0.1 48 48 W 7 11 29.79 1009 10 16 0.00 0.00
7:55 pm 19:55 Clear 51 10.3 33 0.4 51 51 WSW 6 9 29.81 1009 10 16 0.00 0.00
8:15 pm 20:15 Clear 50 9.9 33 0.4 52 52 WSW 3 6 29.83 1010 10 16 0.00 0.00
8:35 pm 20:35 Clear 48 8.8 34 0.9 58 58 W 3 6 29.85 1011 10 16 0.00 0.00
8:55 pm 20:55 Clear 49 9.6 33 0.3 53 53 W 6 9 29.85 1011 10 16 0.00 0.00
9:15 pm 21:15 Clear 49 9.7 32 0.1 52 52 W 8 13 29.86 1011 10 16 0.00 0.00
9:35 pm 21:35 Clear 48 9.1 32 0 53 53 W 9 15 29.87 1012 10 16 0.00 0.00
9:55 pm 21:55 Clear 47 8.6 32 0.2 56 56 W 6 9 29.90 1012 10 16 0.00 0.00
10:15 pm 22:15 Clear 46 7.8 32 0.1 59 59 W 8 13 29.91 1013 10 16 0.00 0.00
10:35 pm 22:35 Clear 47 8.2 32 0 57 57 WNW 5 7 29.91 1013 10 16 0.00 0.00
10:55 pm 22:55 Clear 47 8.2 32 -0.1 56 56 WNW 9 15 29.92 1013 10 16 0.00 0.00
11:15 pm 23:15 Clear 47 8.3 32 -0.2 55 55 WNW 6 9 29.92 1013 10 16 0.00 0.00
11:35 pm 23:35 Clear 45 7.3 32 -0.2 59 59 W 7 11 29.93 1013 10 16 0.00 0.00
11:55 pm 23:55 Clear 45 7.3 31 -0.3 59 59 WNW 5 7 29.92 1013 10 16 0.00 0.00

Powered by AerisWeather